TimeCDT,TemperatureF,Dew PointF,Humidity,Sea Level PressureIn,VisibilityMPH,Wind Direction,Wind SpeedMPH,Gust SpeedMPH,PrecipitationIn,Events,Conditions,WindDirDegrees,DateUTC
12:53 AM,57.0,50.0,77,29.75,10.0,SE,11.5,-,N/A,,Clear,130,2012-04-19 05:53:00
1:53 AM,55.9,50.0,80,29.74,10.0,East,5.8,-,N/A,,Partly Cloudy,80,2012-04-19 06:53:00
2:53 AM,55.0,50.0,83,29.72,10.0,NNW,8.1,-,N/A,,Mostly Cloudy,340,2012-04-19 07:53:00
3:53 AM,55.9,50.0,80,29.73,10.0,North,13.8,-,N/A,,Partly Cloudy,360,2012-04-19 08:53:00
4:53 AM,53.1,48.9,86,29.72,10.0,North,15.0,-,N/A,,Clear,10,2012-04-19 09:53:00
5:53 AM,51.1,46.0,83,29.75,10.0,North,15.0,-,N/A,,Partly Cloudy,350,2012-04-19 10:53:00
6:53 AM,52.0,46.0,80,29.77,10.0,NNW,11.5,-,N/A,,Mostly Cloudy,340,2012-04-19 11:53:00
7:53 AM,53.1,46.9,80,29.79,10.0,NNW,17.3,-,N/A,,Overcast,340,2012-04-19 12:53:00
8:49 AM,51.8,50.0,94,29.83,1.8,North,16.1,-,0.05,Rain,Heavy Rain,360,2012-04-19 13:49:00
8:53 AM,52.0,50.0,93,29.80,1.8,North,16.1,-,0.05,Rain,Heavy Rain,10,2012-04-19 13:53:00
8:58 AM,51.8,50.0,94,29.81,3.0,NNE,17.3,-,0.01,Rain,Rain,30,2012-04-19 13:58:00
9:53 AM,55.0,52.0,89,29.80,10.0,NNW,17.3,-,0.02,,Scattered Clouds,340,2012-04-19 14:53:00
10:12 AM,57.2,51.8,82,29.82,10.0,NNW,16.1,-,N/A,,Mostly Cloudy,330,2012-04-19 15:12:00
10:24 AM,57.2,51.8,82,29.82,10.0,NNW,17.3,-,N/A,,Partly Cloudy,340,2012-04-19 15:24:00
10:53 AM,60.1,51.1,72,29.80,10.0,NNW,18.4,-,N/A,,Partly Cloudy,340,2012-04-19 15:53:00
11:53 AM,64.0,50.0,60,29.80,10.0,NW,19.6,26.5,N/A,,Partly Cloudy,320,2012-04-19 16:53:00
12:53 PM,64.9,48.9,56,29.82,10.0,NW,24.2,32.2,N/A,,Mostly Cloudy,320,2012-04-19 17:53:00
1:53 PM,64.9,46.9,52,29.82,10.0,NNW,21.9,28.8,N/A,,Scattered Clouds,330,2012-04-19 18:53:00
2:53 PM,64.0,45.0,50,29.83,10.0,NNW,25.3,32.2,N/A,,Scattered Clouds,330,2012-04-19 19:53:00
3:53 PM,63.0,44.1,50,29.83,10.0,North,24.2,32.2,N/A,,Clear,350,2012-04-19 20:53:00
4:53 PM,63.0,43.0,48,29.86,10.0,NNW,20.7,-,N/A,,Partly Cloudy,340,2012-04-19 21:53:00
5:53 PM,59.0,43.0,55,29.89,10.0,NNE,18.4,-,N/A,,Clear,20,2012-04-19 22:53:00
6:53 PM,57.9,42.1,56,29.90,10.0,North,16.1,-,N/A,,Clear,10,2012-04-19 23:53:00
7:53 PM,53.1,42.1,66,29.94,10.0,NNE,11.5,-,N/A,,Clear,30,2012-04-20 00:53:00
8:53 PM,48.9,41.0,74,29.98,10.0,NE,10.4,-,N/A,,Clear,40,2012-04-20 01:53:00
9:53 PM,46.0,41.0,83,30.01,10.0,NE,10.4,-,N/A,,Clear,50,2012-04-20 02:53:00
10:53 PM,43.0,39.0,86,30.02,10.0,NE,8.1,-,N/A,,Clear,40,2012-04-20 03:53:00
11:28 PM,44.6,41.0,87,30.03,10.0,NNE,6.9,-,N/A,,Mostly Cloudy,20,2012-04-20 04:28:00
11:53 PM,46.9,41.0,80,30.02,10.0,NNE,8.1,-,N/A,,Overcast,30,2012-04-20 04:53:00